This is the latest recevied weather packets stored in our database for station/object KD5FHA. If no packets are shown the sender has not sent any weather packets the latest 1 day(s).
| Time | Temp. | Humidity | Pressure | Rain* | Wind** | Luminosity | Snow |
|---|---|---|---|---|---|---|---|
| 1778050497 | 17.78° C | 76% | 1010.2 hPa | 0 mm | 0.89 m/s, 17° | 0 W/m² | - |
| 1778050193 | 17.78° C | 76% | 1010.2 hPa | 0 mm | 1.79 m/s, 24° | 0 W/m² | - |
| 1778049890 | 17.78° C | 76% | 1009.9 hPa | 0 mm | 2.68 m/s, 24° | 0 W/m² | - |
| 1778049586 | 17.78° C | 76% | 1009.9 hPa | 0 mm | 2.68 m/s, 26° | 0 W/m² | - |
| 1778049283 | 17.78° C | 76% | 1009.9 hPa | 0 mm | 2.68 m/s, 25° | 0 W/m² | - |
| 1778048981 | 17.78° C | 76% | 1010.2 hPa | 0 mm | 1.34 m/s, 5° | 0 W/m² | - |
| 1778048679 | 17.78° C | 76% | 1010.1 hPa | 0 mm | 0.89 m/s, 72° | 0 W/m² | - |
| 1778048375 | 17.78° C | 76% | 1010.1 hPa | 0 mm | 1.79 m/s, 43° | 0 W/m² | - |
| 1778048072 | 18.33° C | 76% | 1010 hPa | 0 mm | 2.68 m/s, 0° | 0 W/m² | - |
| 1778047770 | 18.33° C | 76% | 1009.9 hPa | 0 mm | 3.13 m/s, 27° | 0 W/m² | - |
| 1778047468 | 18.33° C | 76% | 1010 hPa | 0 mm | 1.34 m/s, 34° | 0 W/m² | - |
| 1778047164 | 18.89° C | 75% | 1009.9 hPa | 0 mm | 2.24 m/s, 11° | 0 W/m² | - |
| 1778046861 | 18.89° C | 75% | 1010 hPa | 0 mm | 0.89 m/s, 354° | 0 W/m² | - |
| 1778046558 | 18.89° C | 76% | 1010 hPa | 0 mm | 1.34 m/s, 55° | 0 W/m² | - |
| 1778046255 | 18.89° C | 75% | 1010.3 hPa | 0 mm | 2.68 m/s, 30° | 0 W/m² | - |
| 1778045951 | 18.89° C | 75% | 1010.2 hPa | 0 mm | 2.24 m/s, 38° | 0 W/m² | - |
| 1778045650 | 18.89° C | 75% | 1010 hPa | 0 mm | 1.79 m/s, 12° | 0 W/m² | - |
| 1778045348 | 18.89° C | 75% | 1010.1 hPa | 0 mm | 0.89 m/s, 15° | 0 W/m² | - |
| 1778045046 | 18.89° C | 75% | 1010.1 hPa | 0 mm | 1.79 m/s, 40° | 0 W/m² | - |
| 1778044743 | 19.44° C | 74% | 1010.1 hPa | 0 mm | 2.24 m/s, 13° | 0 W/m² | - |
| 1778044440 | 19.44° C | 74% | 1010.1 hPa | 0 mm | 1.34 m/s, 255° | 0 W/m² | - |
| 1778044137 | 19.44° C | 74% | 1010.2 hPa | 0 mm | 1.79 m/s, 315° | 0 W/m² | - |
| 1778043834 | 20° C | 74% | 1009.9 hPa | 0 mm | 1.34 m/s, 18° | 0 W/m² | - |
| 1778043531 | 20° C | 73% | 1010.1 hPa | 0 mm | 0.89 m/s, 312° | 0 W/m² | - |
| 1778043228 | 20° C | 74% | 1010 hPa | 0 mm | 1.79 m/s, 16° | 0 W/m² | - |
* Rain latest hour (hover to see other rain measurements)
** Current wind speed in m/s (hover to see current wind gust speed)